Haines, AK

12:28 PM AKDT on September 28, 2016 (GMT -0800)
Haines

Weather History for PAHN - June, 2014

Change the Weather History Date:

Tuesday, June 17, 2014

  Actual Average Record
Temperature  
Mean Temperature 54 °F -  
Max Temperature 59 °F 61 °F 84 °F (2013)
Min Temperature 50 °F 47 °F 43 °F (1998)
Degree Days  
Heating Degree Days 10    
Growing Degree Days 4 (Base 50)    
Moisture  
Dew Point 47 °F    
Average Humidity 80    
Maximum Humidity 93    
Minimum Humidity 53    
Precipitation  
Precipitation 0.55 in - - ()
Sea Level Pressure  
Sea Level Pressure 29.77 in    
Wind  
Wind Speed 13 mph (East)    
Max Wind Speed 21 mph    
Max Gust Speed 34 mph    
Visibility 9 miles    
Events Rain    
Averages and records for this station are not official NWS values.
T = Trace of Precipitation, MM = Missing Value Source: NWS Daily Summary

Daily Weather History Graph

Daily Weather History Graph

Search for Another Location

Airport or City:

Trip Planner

Search our weather history database for the weather conditions in past years. The results will help you decide how hot, cold, wet, or windy it might be!

Date:

Astronomy

Jun. 17, 2014 Rise Set
Actual Time 3:45 AM AKDT 10:20 PM AKDT
Civil Twilight 2:16 AM AKDT 11:50 PM AKDT
Nautical Twilight Sun does not set Sun does not set
Astronomical Twilight Sun does not set Sun does not set
Moon 12:03 AM AKDT (6/17) 10:28 AM AKDT (6/17)
Length of Visible Light 21h 33m
Length of Day
18h 34m
Waning Gibbous, 72% of the Moon is Illuminated
Jun 17
Waning Gibbous
Jun 19
Last Quarter
Jun 27
New
Jul 5
First Quarter
Jul 12
Full

Hourly Weather History & Observations

Time (AKDT) Temp. Dew Point Humidity Pressure Visibility Wind Dir Wind Speed Gust Speed Precip Events Conditions
12:54 AM 59.0 °F 42.1 °F 53% 29.85 in 10.0 mi East 11.5 mph 19.6 mph N/A   Overcast
1:54 AM 57.9 °F 43.0 °F 58% 29.84 in 10.0 mi East 9.2 mph 20.7 mph 0.00 in Rain Light Rain
2:54 AM 57.9 °F 44.1 °F 60% 29.82 in 10.0 mi East 11.5 mph 18.4 mph 0.00 in   Overcast
3:54 AM 57.0 °F 44.1 °F 62% 29.81 in 10.0 mi East 10.4 mph - N/A   Overcast
4:54 AM 55.9 °F 45.0 °F 67% 29.79 in 10.0 mi East 8.1 mph 17.3 mph 0.00 in Rain Light Rain
5:54 AM 53.1 °F 46.0 °F 77% 29.78 in 10.0 mi ENE 17.3 mph 25.3 mph 0.01 in Rain Light Rain
6:54 AM 52.0 °F 46.9 °F 83% 29.77 in 7.0 mi East 15.0 mph 27.6 mph 0.04 in Rain Light Rain
7:54 AM 51.1 °F 46.0 °F 83% 29.75 in 5.0 mi ENE 18.4 mph 32.2 mph 0.06 in Rain Light Rain
8:54 AM 51.1 °F 46.9 °F 86% 29.73 in 4.0 mi ENE 20.7 mph 31.1 mph 0.07 in Rain Rain
9:54 AM 51.1 °F 48.0 °F 89% 29.74 in 5.0 mi East 15.0 mph 28.8 mph 0.11 in Rain Light Rain
10:50 AM 51.8 °F 48.2 °F 88% 29.71 in 10.0 mi East 13.8 mph 25.3 mph 0.08 in Rain Light Rain
10:54 AM 52.0 °F 50.0 °F 93% 29.71 in 10.0 mi East 13.8 mph 23.0 mph 0.08 in Rain Light Rain
11:25 AM 53.1 °F 48.9 °F 86% 29.72 in 10.0 mi ESE 16.1 mph 28.8 mph 0.00 in Rain Light Rain
11:54 AM 52.0 °F 48.9 °F 89% 29.73 in 6.0 mi East 17.3 mph 26.5 mph 0.01 in Rain Light Rain
12:11 PM 52.0 °F 48.9 °F 89% 29.71 in 7.0 mi East 13.8 mph 27.6 mph 0.01 in Rain Light Rain
12:18 PM 52.0 °F 48.9 °F 89% 29.71 in 8.0 mi ESE 13.8 mph 23.0 mph 0.01 in Rain Light Rain
12:26 PM 52.0 °F 48.9 °F 89% 29.72 in 8.0 mi ESE 16.1 mph 26.5 mph 0.01 in Rain Light Rain
12:54 PM 52.0 °F 48.9 °F 89% 29.73 in 9.0 mi East 10.4 mph 24.2 mph 0.03 in Rain Light Rain
1:37 PM 54.0 °F 51.1 °F 90% 29.72 in 10.0 mi ESE 18.4 mph 27.6 mph 0.00 in Rain Light Rain
1:54 PM 55.9 °F 50.0 °F 80% 29.74 in 10.0 mi ESE 16.1 mph 33.4 mph 0.00 in Rain Light Rain
2:54 PM 53.1 °F 50.0 °F 89% 29.75 in 9.0 mi East 17.3 mph 34.5 mph 0.03 in Rain Light Rain
3:54 PM 53.1 °F 50.0 °F 89% 29.76 in 6.0 mi ESE 18.4 mph 32.2 mph 0.05 in Rain Light Rain
4:33 PM 55.0 °F 51.1 °F 86% 29.76 in 10.0 mi East 16.1 mph 24.2 mph 0.06 in Rain Light Rain
4:47 PM 54.0 °F 51.1 °F 90% 29.76 in 10.0 mi ESE 11.5 mph 26.5 mph 0.06 in Rain Light Rain
4:54 PM 54.0 °F 51.1 °F 90% 29.78 in 10.0 mi ESE 15.0 mph 24.2 mph 0.06 in Rain Light Rain
5:54 PM 54.0 °F 48.0 °F 80% 29.79 in 10.0 mi ESE 9.2 mph - 0.00 in   Overcast
6:54 PM 55.0 °F 46.9 °F 74% 29.80 in 10.0 mi Variable 6.9 mph - N/A   Mostly Cloudy
7:54 PM 53.1 °F 43.0 °F 69% 29.81 in 10.0 mi North - - N/A   Clear
8:54 PM 52.0 °F 43.0 °F 71% 29.83 in 10.0 mi Variable 5.8 mph - N/A   Partly Cloudy
9:54 PM 51.1 °F 41.0 °F 68% 29.85 in 10.0 mi ENE 8.1 mph - N/A   Clear
10:54 PM 50.0 °F 42.1 °F 74% 29.86 in 10.0 mi East 6.9 mph - N/A   Scattered Clouds
11:54 PM 51.1 °F 43.0 °F 74% 29.86 in 10.0 mi East 8.1 mph - N/A   Mostly Cloudy